Flag for Trinidad and Tobago Weather past 2 weeks in Scarborough, Trinidad and Tobago

Now
86 °F

Passing clouds.


Feels Like: 95 °F
Forecast: N/A
Wind: 15 mph from Southeast

Location: Crown Pt./ Scarborou

Current Time: Aug 30, 2015 at 4:57:28 PM

Latest Report: Aug 30, 2015 at 4:00 PM


Visibility: N/A

Pressure: 29.92 "Hg

Humidity: 70%

Dew point: 75 °F

Location of ScarboroughLocation

Historic Weather in Scarborough — Graph

°F

Scarborough temperature yesterday

Maximum temperature yesterday: 88 °F (at 9:00 AM)
Minimum temperature yesterday: 79 °F (at 3:00 AM)
Average temperature yesterday: 84 °F

Past Weeks' High & Low Weather Summary

 TemperatureHumidityPressure
High91 °F (Aug 18, 12:00 PM)89% (Aug 20, 1:00 PM)30.01 "Hg (Aug 20, 1:00 PM)
Low77 °F (Aug 17, 2:00 AM)52% (Aug 16, 1:00 PM)29.83 "Hg (Aug 24, 3:00 AM)
Average83 °F74%29.92 "Hg
* Reported Aug 15 3:00 PM — Aug 30 3:00 PM, Scarborough, Weather by CustomWeather, © 2015

Note: Actual official high and low records may vary slightly from our data, if they occured in-between our weather recording intervals... More about our weather records

Advertising

Scarborough weather history for previous 24 hours

 ConditionsComfort  
Time TempWeatherWind HumidityBarometerVisibility
3:00 PM
Sun, Aug 30
88 °FPassing clouds.13 mph66%29.92 "HgN/A
2:00 PM90 °FPassing clouds.14 mph63%29.95 "HgN/A
1:00 PM90 °FPassing clouds.15 mph63%29.98 "HgN/A
12:00 PM88 °FPassing clouds.13 mph66%29.98 "HgN/A
10:00 AM88 °FPassing clouds.14 mph66%29.98 "HgN/A
9:00 AM86 °FPassing clouds.13 mph75%29.98 "HgN/A
8:00 AM84 °FScattered clouds.12 mph79%29.98 "HgN/A
7:00 AM82 °FScattered clouds.13 mph79%29.95 "HgN/A
6:00 AM82 °FScattered clouds.12 mph74%29.92 "HgN/A
5:00 AM82 °FPassing clouds.12 mph79%29.92 "HgN/A
3:00 AM81 °FPassing clouds.9 mph84%29.89 "HgN/A
2:00 AM82 °FSprinkles. Passing clouds.13 mph79%29.92 "HgN/A
1:00 AM82 °FPassing clouds.12 mph79%29.92 "HgN/A
12:00 AM82 °FPassing clouds.9 mph79%29.95 "HgN/A
11:00 PM
Sat, Aug 29
82 °FPassing clouds.7 mph79%29.95 "HgN/A
10:00 PM82 °FPassing clouds.8 mph79%29.95 "HgN/A
9:00 PM82 °FPassing clouds.7 mph74%29.95 "HgN/A
8:00 PM84 °FPassing clouds.5 mph79%29.92 "HgN/A
7:00 PM84 °FPassing clouds.5 mph70%29.89 "HgN/A
6:00 PM84 °FPassing clouds.8 mph70%29.89 "HgN/A
5:00 PM86 °FPassing clouds.8 mph70%29.89 "HgN/A
4:00 PM88 °FPassing clouds.9 mph66%29.89 "HgN/A
Weather by CustomWeather, © 2015

See weather overviewHow to use our weather pages